| time (UTC) | temp F | wind direction | speed MPH | gust MPH | rain 1hr in | rain 24hr in | rain mn in | humidity % | barometer mb |
| 20260506005205 | 78 | 15 | 2.0 | 2.0 | 0.00 | 0.00 | 0.00 | 65 | 1007.3 |
| 20260506004701 | 78 | 297 | 3.0 | 5.0 | 0.00 | 0.00 | 0.00 | 66 | 1007.3 |
| 20260506004159 | 79 | 84 | 0.0 | 0.0 | 0.00 | 0.00 | 0.00 | 68 | 1006.9 |
| 20260506003654 | 80 | 42 | 1.0 | 1.0 | 0.00 | 0.00 | 0.00 | 77 | 1006.9 |
| 20260506003151 | 80 | 296 | 3.0 | 5.0 | 0.00 | 0.00 | 0.00 | 78 | 1007.0 |
| 20260506002647 | 80 | 248 | 4.0 | 5.0 | 0.00 | 0.00 | 0.00 | 77 | 1006.9 |
| 20260506002143 | 80 | 198 | 3.0 | 5.0 | 0.00 | 0.00 | 0.00 | 76 | 1006.5 |
| 20260506001639 | 80 | 194 | 3.0 | 3.0 | 0.00 | 0.00 | 0.00 | 75 | 1006.4 |
| 20260506001137 | 80 | 181 | 3.0 | 3.0 | 0.00 | 0.00 | 0.00 | 75 | 1006.1 |
| 20260506000633 | 81 | 180 | 5.0 | 6.0 | 0.00 | 0.00 | 0.00 | 75 | 1006.0 |
| 20260506000131 | 81 | 165 | 5.0 | 6.0 | 0.00 | 0.00 | 0.00 | 74 | 1005.9 |
| 20260505235629 | 81 | 180 | 5.0 | 6.0 | 0.00 | 0.00 | 0.00 | 74 | 1006.0 |
| 20260505235126 | 81 | 169 | 3.0 | 5.0 | 0.00 | 0.00 | 0.00 | 74 | 1006.1 |
| 20260505234622 | 82 | 188 | 5.0 | 6.0 | 0.00 | 0.00 | 0.00 | 73 | 1006.0 |
| 20260505234119 | 82 | 195 | 9.0 | 9.0 | 0.00 | 0.00 | 0.00 | 72 | 1006.0 |
| 20260505233617 | 82 | 149 | 6.0 | 7.0 | 0.00 | 0.00 | 0.00 | 72 | 1005.8 |
| 20260505233114 | 82 | 174 | 8.0 | 9.0 | 0.00 | 0.00 | 0.00 | 71 | 1005.9 |
| 20260505232612 | 82 | 195 | 6.0 | 7.0 | 0.00 | 0.00 | 0.00 | 71 | 1006.0 |
| 20260505232109 | 82 | 199 | 8.0 | 9.0 | 0.00 | 0.00 | 0.00 | 71 | 1005.8 |
| 20260505231606 | 82 | 165 | 8.0 | 8.0 | 0.00 | 0.00 | 0.00 | 70 | 1005.7 |
| 20260505231105 | 83 | 200 | 6.0 | 8.0 | 0.00 | 0.00 | 0.00 | 70 | 1005.6 |
| 20260505230602 | 83 | 216 | 8.0 | 10.0 | 0.00 | 0.00 | 0.00 | 69 | 1005.5 |
| 20260505230058 | 84 | 163 | 9.0 | 13.0 | 0.00 | 0.00 | 0.00 | 68 | 1005.8 |
| 20260505225555 | 84 | 183 | 9.0 | 10.0 | 0.00 | 0.00 | 0.00 | 67 | 1005.6 |
| 20260505225051 | 85 | 203 | 9.0 | 10.0 | 0.00 | 0.00 | 0.00 | 65 | 1005.8 |
| 20260505224548 | 85 | 205 | 11.0 | 13.0 | 0.00 | 0.00 | 0.00 | 66 | 1005.4 |
| 20260505224045 | 86 | 178 | 9.0 | 9.0 | 0.00 | 0.00 | 0.00 | 65 | 1005.4 |
| 20260505223542 | 86 | 197 | 8.0 | 9.0 | 0.00 | 0.00 | 0.00 | 65 | 1005.2 |
| 20260505223038 | 85 | 212 | 9.0 | 9.0 | 0.00 | 0.00 | 0.00 | 65 | 1005.2 |
| 20260505222535 | 84 | 205 | 7.0 | 10.0 | 0.00 | 0.00 | 0.00 | 68 | 1005.4 |
| 20260505222031 | 85 | 209 | 7.0 | 8.0 | 0.00 | 0.00 | 0.00 | 66 | 1005.6 |
| 20260505221528 | 85 | 203 | 9.0 | 9.0 | 0.00 | 0.00 | 0.00 | 66 | 1005.5 |
| 20260505221025 | 85 | 179 | 7.0 | 9.0 | 0.00 | 0.00 | 0.00 | 65 | 1005.5 |
| 20260505220522 | 85 | 191 | 8.0 | 10.0 | 0.00 | 0.00 | 0.00 | 65 | 1005.5 |
| 20260505220020 | 84 | 217 | 8.0 | 9.0 | 0.00 | 0.00 | 0.00 | 66 | 1005.4 |
| 20260505215518 | 84 | 207 | 10.0 | 11.0 | 0.00 | 0.00 | 0.00 | 66 | 1005.5 |
| 20260505215015 | 85 | 198 | 11.0 | 13.0 | 0.00 | 0.00 | 0.00 | 65 | 1005.5 |
| 20260505214513 | 85 | 199 | 6.0 | 7.0 | 0.00 | 0.00 | 0.00 | 66 | 1005.7 |
| 20260505214010 | 86 | 212 | 9.0 | 10.0 | 0.00 | 0.00 | 0.00 | 64 | 1005.6 |
| 20260505213508 | 86 | 218 | 10.0 | 13.0 | 0.00 | 0.00 | 0.00 | 64 | 1005.6 |
| 20260505213004 | 86 | 183 | 11.0 | 13.0 | 0.00 | 0.00 | 0.00 | 63 | 1005.8 |
| 20260505212500 | 85 | 204 | 10.0 | 11.0 | 0.00 | 0.00 | 0.00 | 65 | 1005.7 |
| 20260505211957 | 86 | 207 | 9.0 | 10.0 | 0.00 | 0.00 | 0.00 | 62 | 1005.6 |
| 20260505211454 | 86 | 229 | 11.0 | 11.0 | 0.00 | 0.00 | 0.00 | 64 | 1005.7 |
| 20260505210951 | 85 | 194 | 14.0 | 18.0 | 0.00 | 0.00 | 0.00 | 62 | 1005.7 |
| 20260505210448 | 85 | 217 | 9.0 | 9.0 | 0.00 | 0.00 | 0.00 | 63 | 1005.8 |
| 20260505205944 | 85 | 243 | 11.0 | 13.0 | 0.00 | 0.00 | 0.00 | 64 | 1005.9 |
| 20260505205443 | 85 | 225 | 7.0 | 8.0 | 0.00 | 0.00 | 0.00 | 65 | 1006.2 |
| 20260505204939 | 84 | 201 | 12.0 | 16.0 | 0.00 | 0.00 | 0.00 | 65 | 1006.3 |
| 20260505204438 | 85 | 212 | 12.0 | 16.0 | 0.00 | 0.00 | 0.00 | 64 | 1006.3 |
| 20260505203934 | 85 | 192 | 8.0 | 10.0 | 0.00 | 0.00 | 0.00 | 65 | 1006.3 |
| 20260505203431 | 84 | 186 | 9.0 | 10.0 | 0.00 | 0.00 | 0.00 | 68 | 1006.1 |
| 20260505202927 | 84 | 223 | 11.0 | 14.0 | 0.00 | 0.00 | 0.00 | 66 | 1006.1 |
| 20260505202424 | 84 | 219 | 11.0 | 13.0 | 0.00 | 0.00 | 0.00 | 66 | 1006.0 |
| 20260505201920 | 84 | 207 | 9.0 | 11.0 | 0.00 | 0.00 | 0.00 | 67 | 1006.0 |
| 20260505201417 | 83 | 263 | 11.0 | 11.0 | 0.00 | 0.00 | 0.00 | 67 | 1006.2 |
| 20260505200915 | 83 | 199 | 13.0 | 15.0 | 0.00 | 0.00 | 0.00 | 66 | 1006.5 |
| 20260505200412 | 83 | 218 | 10.0 | 11.0 | 0.00 | 0.00 | 0.00 | 66 | 1006.5 |
| 20260505195908 | 83 | 189 | 14.0 | 16.0 | 0.00 | 0.00 | 0.00 | 67 | 1006.1 |
| 20260505195405 | 83 | 205 | 14.0 | 15.0 | 0.00 | 0.00 | 0.00 | 67 | 1006.4 |
| 20260505194903 | 83 | 226 | 13.0 | 18.0 | 0.00 | 0.00 | 0.00 | 67 | 1006.5 |
| 20260505194400 | 83 | 228 | 15.0 | 17.0 | 0.00 | 0.00 | 0.00 | 66 | 1006.3 |
| 20260505193900 | 82 | 217 | 13.0 | 14.0 | 0.00 | 0.00 | 0.00 | 67 | 1006.4 |
| 20260505193358 | 82 | 183 | 13.0 | 15.0 | 0.00 | 0.00 | 0.00 | 68 | 1006.6 |
| 20260505192855 | 82 | 189 | 9.0 | 14.0 | 0.00 | 0.00 | 0.00 | 69 | 1006.5 |
| 20260505192353 | 82 | 195 | 17.0 | 18.0 | 0.00 | 0.00 | 0.00 | 68 | 1006.6 |
| 20260505191850 | 81 | 200 | 10.0 | 15.0 | 0.00 | 0.00 | 0.00 | 70 | 1006.2 |
| 20260505191349 | 81 | 211 | 12.0 | 14.0 | 0.00 | 0.00 | 0.00 | 70 | 1006.6 |
| 20260505190845 | 81 | 199 | 13.0 | 16.0 | 0.00 | 0.00 | 0.00 | 69 | 1006.8 |
| 20260505190341 | 81 | 193 | 11.0 | 14.0 | 0.00 | 0.00 | 0.00 | 69 | 1006.5 |
| 20260505185837 | 81 | 213 | 9.0 | 10.0 | 0.00 | 0.00 | 0.00 | 70 | 1006.5 |
| 20260505185333 | 81 | 227 | 12.0 | 15.0 | 0.00 | 0.00 | 0.00 | 70 | 1006.5 |
| 20260505184830 | 81 | 193 | 10.0 | 11.0 | 0.00 | 0.00 | 0.00 | 70 | 1006.6 |
| 20260505184327 | 81 | 193 | 11.0 | 14.0 | 0.00 | 0.00 | 0.00 | 70 | 1006.4 |
| 20260505183824 | 81 | 199 | 13.0 | 16.0 | 0.00 | 0.00 | 0.00 | 70 | 1006.4 |
| 20260505183321 | 82 | 211 | 10.0 | 11.0 | 0.00 | 0.00 | 0.00 | 68 | 1006.6 |
| 20260505182817 | 82 | 225 | 13.0 | 14.0 | 0.00 | 0.00 | 0.00 | 68 | 1006.5 |
| 20260505182314 | 82 | 227 | 12.0 | 14.0 | 0.00 | 0.00 | 0.00 | 69 | 1006.5 |
| 20260505181811 | 81 | 206 | 10.0 | 13.0 | 0.00 | 0.00 | 0.00 | 68 | 1006.6 |
| 20260505181308 | 82 | 221 | 17.0 | 21.0 | 0.00 | 0.00 | 0.00 | 67 | 1006.6 |
| 20260505180805 | 82 | 214 | 16.0 | 20.0 | 0.00 | 0.00 | 0.00 | 67 | 1006.5 |
| 20260505180301 | 81 | 192 | 16.0 | 17.0 | 0.00 | 0.00 | 0.00 | 68 | 1006.5 |
| 20260505175758 | 80 | 203 | 18.0 | 22.0 | 0.00 | 0.00 | 0.00 | 68 | 1006.7 |
| 20260505175254 | 80 | 226 | 14.0 | 18.0 | 0.00 | 0.00 | 0.00 | 69 | 1006.8 |
| 20260505174751 | 80 | 197 | 19.0 | 22.0 | 0.00 | 0.00 | 0.00 | 68 | 1006.2 |
| 20260505174248 | 80 | 205 | 13.0 | 16.0 | 0.00 | 0.00 | 0.00 | 71 | 1006.4 |
| 20260505173744 | 80 | 215 | 16.0 | 18.0 | 0.00 | 0.00 | 0.00 | 69 | 1006.1 |
| 20260505173241 | 80 | 201 | 15.0 | 18.0 | 0.00 | 0.00 | 0.00 | 70 | 1006.9 |
| 20260505172738 | 79 | 216 | 9.0 | 10.0 | 0.00 | 0.00 | 0.00 | 71 | 1006.7 |
| 20260505172235 | 79 | 220 | 15.0 | 18.0 | 0.00 | 0.00 | 0.00 | 71 | 1006.9 |
| 20260505171735 | 79 | 189 | 9.0 | 10.0 | 0.00 | 0.00 | 0.00 | 72 | 1006.8 |
| 20260505171232 | 79 | 198 | 13.0 | 14.0 | 0.00 | 0.00 | 0.00 | 71 | 1006.4 |
| 20260505170728 | 78 | 194 | 14.0 | 18.0 | 0.00 | 0.00 | 0.00 | 73 | 1006.5 |
| 20260505170226 | 78 | 214 | 12.0 | 14.0 | 0.00 | 0.00 | 0.00 | 73 | 1006.7 |
| 20260505165721 | 78 | 212 | 15.0 | 18.0 | 0.00 | 0.00 | 0.00 | 72 | 1007.0 |
| 20260505165217 | 78 | 224 | 14.0 | 16.0 | 0.00 | 0.00 | 0.00 | 73 | 1007.3 |
| 20260505164712 | 78 | 221 | 16.0 | 18.0 | 0.00 | 0.00 | 0.00 | 72 | 1007.2 |
| 20260505164210 | 78 | 211 | 15.0 | 17.0 | 0.00 | 0.00 | 0.00 | 72 | 1007.2 |
| 20260505163708 | 78 | 213 | 19.0 | 22.0 | 0.00 | 0.00 | 0.00 | 73 | 1007.0 |
| 20260505163206 | 78 | 211 | 17.0 | 23.0 | 0.00 | 0.00 | 0.00 | 74 | 1006.9 |
| 20260505162703 | 77 | 209 | 15.0 | 18.0 | 0.00 | 0.00 | 0.00 | 74 | 1006.8 |
| 20260505162200 | 77 | 219 | 18.0 | 22.0 | 0.00 | 0.00 | 0.00 | 74 | 1006.6 |
| 20260505161657 | 77 | 204 | 15.0 | 16.0 | 0.00 | 0.00 | 0.00 | 74 | 1006.7 |
| 20260505161154 | 77 | 214 | 12.0 | 14.0 | 0.00 | 0.00 | 0.00 | 76 | 1006.7 |
| 20260505160652 | 77 | 212 | 12.0 | 14.0 | 0.00 | 0.00 | 0.00 | 76 | 1006.5 |
| 20260505160149 | 77 | 226 | 11.0 | 14.0 | 0.00 | 0.00 | 0.00 | 75 | 1006.2 |
| 20260505153129 | 75 | 230 | 14.0 | 16.0 | 0.00 | 0.00 | 0.00 | 78 | 1006.6 |
| 20260505152625 | 75 | 196 | 12.0 | 17.0 | 0.00 | 0.00 | 0.00 | 78 | 1006.7 |
| 20260505152121 | 76 | 212 | 12.0 | 16.0 | 0.00 | 0.00 | 0.00 | 78 | 1006.7 |
| 20260505151617 | 75 | 218 | 9.0 | 15.0 | 0.00 | 0.00 | 0.00 | 79 | 1006.8 |
| 20260505151114 | 75 | 217 | 13.0 | 17.0 | 0.00 | 0.00 | 0.00 | 78 | 1006.9 |
| 20260505150610 | 74 | 198 | 17.0 | 20.0 | 0.00 | 0.00 | 0.00 | 80 | 1006.7 |
| 20260505150107 | 74 | 197 | 13.0 | 14.0 | 0.00 | 0.00 | 0.00 | 80 | 1007.0 |
| 20260505140536 | 72 | 205 | 16.0 | 18.0 | 0.00 | 0.00 | 0.00 | 83 | 1006.6 |
| 20260505124949 | 71 | 185 | 13.0 | 16.0 | 0.00 | 0.00 | 0.00 | 85 | 1006.5 |
| 20260505124446 | 71 | 197 | 9.0 | 10.0 | 0.00 | 0.00 | 0.00 | 85 | 1006.3 |
| 20260505123942 | 71 | 181 | 9.0 | 11.0 | 0.00 | 0.00 | 0.00 | 85 | 1006.5 |
| 20260505123439 | 71 | 211 | 11.0 | 14.0 | 0.00 | 0.00 | 0.00 | 84 | 1006.4 |
| 20260505122935 | 71 | 196 | 12.0 | 14.0 | 0.00 | 0.00 | 0.00 | 84 | 1006.3 |
| 20260505122432 | 71 | 195 | 11.0 | 13.0 | 0.00 | 0.00 | 0.00 | 84 | 1006.3 |
| 20260505121929 | 71 | 222 | 9.0 | 9.0 | 0.00 | 0.00 | 0.00 | 84 | 1006.3 |
| 20260505121426 | 71 | 209 | 10.0 | 11.0 | 0.00 | 0.00 | 0.00 | 84 | 1006.0 |
| 20260505120921 | 71 | 212 | 13.0 | 16.0 | 0.00 | 0.00 | 0.00 | 84 | 1006.1 |
| 20260505120418 | 71 | 207 | 13.0 | 16.0 | 0.00 | 0.00 | 0.00 | 84 | 1006.1 |
| 20260505115917 | 71 | 203 | 11.0 | 13.0 | 0.00 | 0.00 | 0.00 | 84 | 1006.0 |
| 20260505115414 | 71 | 209 | 11.0 | 11.0 | 0.00 | 0.00 | 0.00 | 85 | 1006.2 |
| 20260505114912 | 71 | 194 | 9.0 | 10.0 | 0.00 | 0.00 | 0.00 | 84 | 1006.1 |
| 20260505114408 | 71 | 198 | 11.0 | 13.0 | 0.00 | 0.00 | 0.00 | 85 | 1006.0 |
| 20260505113904 | 70 | 217 | 9.0 | 11.0 | 0.00 | 0.00 | 0.00 | 85 | 1005.9 |
| 20260505113401 | 70 | 190 | 7.0 | 9.0 | 0.00 | 0.00 | 0.00 | 85 | 1006.0 |
| 20260505112857 | 70 | 205 | 11.0 | 14.0 | 0.00 | 0.00 | 0.00 | 85 | 1005.8 |
| 20260505112355 | 70 | 218 | 9.0 | 11.0 | 0.00 | 0.00 | 0.00 | 85 | 1005.6 |
| 20260505111850 | 70 | 215 | 14.0 | 17.0 | 0.00 | 0.00 | 0.00 | 84 | 1005.7 |
| 20260505111346 | 70 | 197 | 9.0 | 11.0 | 0.00 | 0.00 | 0.00 | 84 | 1005.7 |
| 20260505110842 | 70 | 180 | 12.0 | 15.0 | 0.00 | 0.00 | 0.00 | 84 | 1005.6 |
| 20260505110340 | 70 | 211 | 14.0 | 16.0 | 0.00 | 0.00 | 0.00 | 84 | 1005.6 |
| 20260505101814 | 71 | 204 | 14.0 | 16.0 | 0.00 | 0.00 | 0.00 | 84 | 1005.9 |
| 20260505101311 | 71 | 217 | 17.0 | 21.0 | 0.00 | 0.00 | 0.00 | 84 | 1006.0 |
| 20260505100807 | 71 | 212 | 15.0 | 18.0 | 0.00 | 0.00 | 0.00 | 84 | 1005.9 |
| 20260505100304 | 71 | 216 | 10.0 | 15.0 | 0.00 | 0.00 | 0.00 | 84 | 1006.0 |
| 20260505095759 | 71 | 203 | 9.0 | 10.0 | 0.00 | 0.00 | 0.00 | 84 | 1006.0 |
| 20260505095257 | 71 | 206 | 9.0 | 13.0 | 0.00 | 0.00 | 0.00 | 84 | 1006.1 |
| 20260505094752 | 71 | 192 | 12.0 | 15.0 | 0.00 | 0.00 | 0.00 | 84 | 1006.0 |
| 20260505094249 | 71 | 209 | 12.0 | 13.0 | 0.00 | 0.00 | 0.00 | 84 | 1006.2 |
| 20260505093745 | 71 | 195 | 9.0 | 10.0 | 0.00 | 0.00 | 0.00 | 84 | 1006.3 |
| 20260505093243 | 71 | 229 | 11.0 | 14.0 | 0.00 | 0.00 | 0.00 | 84 | 1006.1 |
| 20260505092739 | 71 | 219 | 13.0 | 14.0 | 0.00 | 0.00 | 0.00 | 84 | 1006.3 |
| 20260505092238 | 71 | 207 | 11.0 | 14.0 | 0.00 | 0.00 | 0.00 | 84 | 1006.3 |
| 20260505091734 | 71 | 221 | 12.0 | 15.0 | 0.00 | 0.00 | 0.00 | 84 | 1006.3 |
| 20260505091233 | 71 | 219 | 12.0 | 15.0 | 0.00 | 0.00 | 0.00 | 84 | 1006.4 |
| 20260505090730 | 71 | 194 | 12.0 | 17.0 | 0.00 | 0.00 | 0.00 | 84 | 1006.3 |
| 20260505090228 | 71 | 215 | 13.0 | 16.0 | 0.00 | 0.00 | 0.00 | 84 | 1006.1 |
| 20260505085725 | 70 | 209 | 16.0 | 18.0 | 0.00 | 0.00 | 0.00 | 84 | 1006.2 |
| 20260505085223 | 70 | 200 | 15.0 | 17.0 | 0.00 | 0.00 | 0.00 | 84 | 1006.3 |
| 20260505084720 | 70 | 215 | 17.0 | 20.0 | 0.00 | 0.00 | 0.00 | 84 | 1006.2 |
| 20260505084220 | 70 | 197 | 12.0 | 15.0 | 0.00 | 0.00 | 0.00 | 84 | 1006.1 |
| 20260505083716 | 70 | 181 | 11.0 | 14.0 | 0.00 | 0.00 | 0.00 | 84 | 1006.0 |
| 20260505083213 | 70 | 202 | 15.0 | 17.0 | 0.00 | 0.00 | 0.00 | 84 | 1006.0 |
| 20260505082708 | 70 | 217 | 10.0 | 13.0 | 0.00 | 0.00 | 0.00 | 84 | 1006.0 |
| 20260505082206 | 70 | 199 | 9.0 | 11.0 | 0.00 | 0.00 | 0.00 | 83 | 1006.2 |
| 20260505081701 | 70 | 200 | 16.0 | 18.0 | 0.00 | 0.00 | 0.00 | 84 | 1006.1 |
| 20260505081159 | 70 | 224 | 9.0 | 11.0 | 0.00 | 0.00 | 0.00 | 84 | 1006.2 |
| 20260505080656 | 70 | 216 | 12.0 | 14.0 | 0.00 | 0.00 | 0.00 | 83 | 1006.3 |
| 20260505080152 | 70 | 197 | 19.0 | 21.0 | 0.00 | 0.00 | 0.00 | 83 | 1006.4 |
| 20260505075648 | 70 | 202 | 12.0 | 16.0 | 0.00 | 0.00 | 0.00 | 83 | 1006.8 |
| 20260505075145 | 70 | 187 | 12.0 | 14.0 | 0.00 | 0.00 | 0.00 | 83 | 1006.6 |
| 20260505074643 | 70 | 212 | 10.0 | 11.0 | 0.00 | 0.00 | 0.00 | 83 | 1006.6 |
| 20260505074139 | 70 | 189 | 12.0 | 14.0 | 0.00 | 0.00 | 0.00 | 83 | 1006.7 |
| 20260505073637 | 70 | 237 | 12.0 | 15.0 | 0.00 | 0.00 | 0.00 | 82 | 1006.6 |
| 20260505073135 | 70 | 229 | 10.0 | 13.0 | 0.00 | 0.00 | 0.00 | 82 | 1006.8 |
| 20260505072630 | 70 | 210 | 11.0 | 13.0 | 0.00 | 0.00 | 0.00 | 82 | 1006.8 |
| 20260505072127 | 71 | 200 | 12.0 | 14.0 | 0.00 | 0.00 | 0.00 | 81 | 1006.7 |
| 20260505071622 | 71 | 217 | 12.0 | 14.0 | 0.00 | 0.00 | 0.00 | 81 | 1007.0 |
| 20260505071120 | 71 | 200 | 12.0 | 13.0 | 0.00 | 0.00 | 0.00 | 81 | 1007.1 |
| 20260505070617 | 71 | 203 | 11.0 | 13.0 | 0.00 | 0.00 | 0.00 | 81 | 1006.8 |
| 20260505070113 | 71 | 202 | 10.0 | 14.0 | 0.00 | 0.00 | 0.00 | 81 | 1007.0 |
| 20260505065610 | 71 | 217 | 10.0 | 11.0 | 0.00 | 0.00 | 0.00 | 81 | 1007.0 |
| 20260505065106 | 71 | 207 | 10.0 | 13.0 | 0.00 | 0.00 | 0.00 | 80 | 1007.1 |
| 20260505064603 | 71 | 196 | 14.0 | 16.0 | 0.00 | 0.00 | 0.00 | 80 | 1006.8 |
| 20260505064102 | 71 | 207 | 15.0 | 20.0 | 0.00 | 0.00 | 0.00 | 80 | 1007.1 |
| 20260505063558 | 71 | 212 | 15.0 | 18.0 | 0.00 | 0.00 | 0.00 | 80 | 1007.0 |
| 20260505063054 | 71 | 215 | 9.0 | 11.0 | 0.00 | 0.00 | 0.00 | 79 | 1007.1 |
| 20260505062551 | 71 | 185 | 11.0 | 13.0 | 0.00 | 0.00 | 0.00 | 79 | 1007.2 |
| 20260505062049 | 71 | 213 | 14.0 | 16.0 | 0.00 | 0.00 | 0.00 | 79 | 1007.3 |
| 20260505061546 | 71 | 191 | 14.0 | 15.0 | 0.00 | 0.00 | 0.00 | 78 | 1007.3 |
| 20260505061044 | 71 | 223 | 14.0 | 18.0 | 0.00 | 0.00 | 0.00 | 78 | 1007.2 |
| 20260505060541 | 71 | 193 | 13.0 | 15.0 | 0.00 | 0.00 | 0.00 | 78 | 1007.3 |
| 20260505060038 | 72 | 210 | 14.0 | 16.0 | 0.00 | 0.00 | 0.00 | 78 | 1007.3 |
| 20260505055533 | 72 | 161 | 13.0 | 17.0 | 0.00 | 0.00 | 0.00 | 77 | 1007.3 |
| 20260505055030 | 72 | 138 | 12.0 | 14.0 | 0.00 | 0.00 | 0.00 | 77 | 1007.4 |
| 20260505054527 | 72 | 188 | 15.0 | 20.0 | 0.00 | 0.00 | 0.00 | 77 | 1007.5 |
| 20260505054025 | 72 | 205 | 16.0 | 17.0 | 0.00 | 0.00 | 0.00 | 77 | 1007.5 |
| 20260505053522 | 72 | 210 | 11.0 | 14.0 | 0.00 | 0.00 | 0.00 | 76 | 1007.3 |
| 20260505053019 | 72 | 193 | 15.0 | 17.0 | 0.00 | 0.00 | 0.00 | 76 | 1007.5 |
| 20260505052516 | 72 | 174 | 9.0 | 11.0 | 0.00 | 0.00 | 0.00 | 76 | 1007.4 |
| 20260505052013 | 72 | 198 | 10.0 | 13.0 | 0.00 | 0.00 | 0.00 | 75 | 1007.6 |
| 20260505051504 | 72 | 190 | 14.0 | 17.0 | 0.00 | 0.00 | 0.00 | 75 | 1007.7 |
| 20260505051003 | 72 | 202 | 11.0 | 16.0 | 0.00 | 0.00 | 0.00 | 75 | 1007.8 |
| 20260505050500 | 72 | 222 | 13.0 | 15.0 | 0.00 | 0.00 | 0.00 | 75 | 1007.6 |
| 20260505041428 | 71 | 174 | 9.0 | 10.0 | 0.00 | 0.00 | 0.00 | 74 | 1008.3 |
| 20260505040925 | 71 | 161 | 7.0 | 9.0 | 0.00 | 0.00 | 0.00 | 74 | 1008.2 |
| 20260505040423 | 71 | 199 | 8.0 | 9.0 | 0.00 | 0.00 | 0.00 | 74 | 1008.1 |
| 20260505035919 | 71 | 195 | 9.0 | 9.0 | 0.00 | 0.00 | 0.00 | 74 | 1008.2 |
| 20260505035415 | 71 | 174 | 8.0 | 9.0 | 0.00 | 0.00 | 0.00 | 74 | 1007.9 |
| 20260505034913 | 71 | 192 | 7.0 | 8.0 | 0.00 | 0.00 | 0.00 | 73 | 1008.0 |
| 20260505034409 | 72 | 163 | 5.0 | 7.0 | 0.00 | 0.00 | 0.00 | 73 | 1007.9 |
| 20260505033906 | 72 | 185 | 7.0 | 7.0 | 0.00 | 0.00 | 0.00 | 72 | 1008.3 |
| 20260505033403 | 72 | 176 | 7.0 | 9.0 | 0.00 | 0.00 | 0.00 | 72 | 1008.4 |
| 20260505032901 | 72 | 180 | 9.0 | 11.0 | 0.00 | 0.00 | 0.00 | 71 | 1008.1 |
| 20260505032357 | 72 | 193 | 9.0 | 10.0 | 0.00 | 0.00 | 0.00 | 71 | 1008.2 |
| 20260505031854 | 72 | 172 | 7.0 | 9.0 | 0.00 | 0.00 | 0.00 | 71 | 1008.3 |
| 20260505031351 | 72 | 199 | 14.0 | 16.0 | 0.00 | 0.00 | 0.00 | 70 | 1008.2 |
| 20260505030849 | 73 | 193 | 7.0 | 9.0 | 0.00 | 0.00 | 0.00 | 70 | 1008.3 |
| 20260505030344 | 73 | 192 | 8.0 | 9.0 | 0.00 | 0.00 | 0.00 | 69 | 1008.1 |
| 20260505025840 | 73 | 186 | 10.0 | 13.0 | 0.00 | 0.00 | 0.00 | 69 | 1008.2 |
| 20260505025337 | 73 | 190 | 7.0 | 9.0 | 0.00 | 0.00 | 0.00 | 69 | 1008.0 |
| 20260505024836 | 73 | 189 | 8.0 | 9.0 | 0.00 | 0.00 | 0.00 | 69 | 1008.2 |
| 20260505024333 | 73 | 139 | 9.0 | 11.0 | 0.00 | 0.00 | 0.00 | 69 | 1008.2 |
| 20260505023830 | 73 | 172 | 11.0 | 13.0 | 0.00 | 0.00 | 0.00 | 69 | 1007.9 |
| 20260505023327 | 73 | 187 | 11.0 | 13.0 | 0.00 | 0.00 | 0.00 | 68 | 1008.2 |
| 20260505022825 | 73 | 165 | 12.0 | 14.0 | 0.00 | 0.00 | 0.00 | 68 | 1008.2 |
| 20260505022321 | 73 | 183 | 10.0 | 13.0 | 0.00 | 0.00 | 0.00 | 68 | 1007.9 |
| 20260505021819 | 73 | 197 | 10.0 | 11.0 | 0.00 | 0.00 | 0.00 | 68 | 1007.8 |
| 20260505021315 | 73 | 211 | 8.0 | 10.0 | 0.00 | 0.00 | 0.00 | 68 | 1008.1 |
| 20260505020811 | 73 | 179 | 11.0 | 13.0 | 0.00 | 0.00 | 0.00 | 67 | 1008.0 |
| 20260505020307 | 73 | 166 | 11.0 | 13.0 | 0.00 | 0.00 | 0.00 | 67 | 1007.7 |
| 20260505015804 | 73 | 207 | 10.0 | 13.0 | 0.00 | 0.00 | 0.00 | 67 | 1008.0 |
| 20260505015301 | 73 | 183 | 10.0 | 11.0 | 0.00 | 0.00 | 0.00 | 67 | 1007.8 |
| 20260505014758 | 74 | 203 | 9.0 | 11.0 | 0.00 | 0.00 | 0.00 | 67 | 1008.0 |
| 20260505014255 | 74 | 186 | 11.0 | 13.0 | 0.00 | 0.00 | 0.00 | 67 | 1007.9 |
| 20260505013751 | 74 | 196 | 8.0 | 10.0 | 0.00 | 0.00 | 0.00 | 66 | 1007.9 |
| 20260505013248 | 74 | 199 | 10.0 | 11.0 | 0.00 | 0.00 | 0.00 | 67 | 1008.1 |
| 20260505012747 | 74 | 203 | 9.0 | 9.0 | 0.00 | 0.00 | 0.00 | 66 | 1007.8 |
| 20260505012244 | 74 | 193 | 10.0 | 13.0 | 0.00 | 0.00 | 0.00 | 65 | 1007.8 |
| 20260505011739 | 74 | 182 | 9.0 | 10.0 | 0.00 | 0.00 | 0.00 | 65 | 1007.9 |
| 20260505011236 | 75 | 176 | 7.0 | 9.0 | 0.00 | 0.00 | 0.00 | 65 | 1008.0 |
| 20260505010732 | 75 | 192 | 7.0 | 9.0 | 0.00 | 0.00 | 0.00 | 64 | 1008.2 |
| 20260505010228 | 75 | 202 | 8.0 | 10.0 | 0.00 | 0.00 | 0.00 | 63 | 1008.0 |
| 20260505005725 | 75 | 190 | 7.0 | 8.0 | 0.00 | 0.00 | 0.00 | 63 | 1007.9 |